This is the latest recevied weather packets stored in our database for station/object K3PPP. If no packets are shown the sender has not sent any weather packets the latest 10 day(s).
| Time | Temp. | Humidity | Pressure | Rain* | Wind** | Luminosity | Snow |
|---|---|---|---|---|---|---|---|
| 1777420712 | 16.11° C | 86% | 1015.1 hPa | 0 mm | - | 8 W/m² | - |
| 1777420409 | 16.11° C | 86% | 1015.1 hPa | 0 mm | - | 10 W/m² | - |
| 1777420106 | 16.11° C | 86% | 1015.2 hPa | 0 mm | - | 10 W/m² | - |
| 1777419802 | 16.11° C | 86% | 1015 hPa | 0 mm | - | 13 W/m² | - |
| 1777419500 | 16.11° C | 86% | 1014.9 hPa | 0 mm | - | 21 W/m² | - |
| 1777419198 | 16.67° C | 84% | 1014.7 hPa | 0 mm | - | 24 W/m² | - |
| 1777418895 | 16.67° C | 84% | 1014.9 hPa | 0 mm | - | 26 W/m² | - |
| 1777418590 | 16.67° C | 83% | 1014.7 hPa | 0 mm | - | 35 W/m² | - |
| 1777418287 | 17.22° C | 81% | 1014.7 hPa | 0 mm | - | 44 W/m² | - |
| 1777417982 | 16.67° C | 81% | 1014.7 hPa | 0 mm | - | 68 W/m² | - |
| 1777417678 | 16.67° C | 81% | 1014.6 hPa | 0 mm | - | 54 W/m² | - |
| 1777417374 | 16.67° C | 83% | 1014.9 hPa | 0 mm | - | 69 W/m² | - |
| 1777417071 | 16.67° C | 82% | 1014.5 hPa | 0 mm | - | 60 W/m² | - |
| 1777416766 | 16.67° C | 82% | 1014.9 hPa | 0 mm | - | 55 W/m² | - |
| 1777416461 | 16.67° C | 82% | 1015.2 hPa | 0 mm | - | 57 W/m² | - |
| 1777416158 | 16.67° C | 82% | 1015.4 hPa | 0 mm | - | 74 W/m² | - |
| 1777415852 | 16.67° C | 82% | 1015.4 hPa | 0 mm | - | 74 W/m² | - |
| 1777415547 | 16.67° C | 81% | 1015.6 hPa | 0 mm | - | 90 W/m² | - |
| 1777415244 | 16.67° C | 81% | 1015.6 hPa | 0 mm | - | 89 W/m² | - |
| 1777414939 | 17.22° C | 80% | 1015.5 hPa | 0 mm | - | 58 W/m² | - |
| 1777414639 | 17.78° C | 79% | 1015.4 hPa | 0 mm | - | 66 W/m² | - |
| 1777414334 | 17.78° C | 79% | 1015.5 hPa | 0 mm | - | 113 W/m² | - |
| 1777414029 | 17.22° C | 83% | 1015.4 hPa | 0 mm | - | 220 W/m² | - |
| 1777413723 | 16.67° C | 83% | 1015.4 hPa | 0 mm | - | 164 W/m² | - |
| 1777413420 | 16.67° C | 83% | 1015.4 hPa | 0 mm | - | 133 W/m² | - |
* Rain latest hour (hover to see other rain measurements)
** Current wind speed in m/s (hover to see current wind gust speed)